[[{"header":{"parameterUnit":"m.s-1","parameterCategory":1,"la1":30.2991,"la2":30.254,"lo1":-89.0895,"lo2":-89.0444,"dy":0.0017,"dx":0.0017,"nx":28,"ny":28,"refTime":"2025-07-27T03:00:00:Z","depth":0,"parameterNumber":2,"parameterNumberName":"U-component_of_WINDS"},"data":[0,0,0,0,0,0,0,0,0,0,0,0,0,0,0,0,0,0,0,0,0,0,0,0,0,0,0,0,0,0,0,0,0,0,0,0,0,0,0,0,0,0,0,0,0,0,0,0,0,0,0,0,0,0,0,0,0,0,0.2592,0.2594,0,0.272,0.2721,0.2723,0.2789,0.2789,0.2789,0.2789,0.2922,0.2925,0.2928,0,0,0,0,0,0,0,0,0,0,0,0,0,0.2406,0.2409,0.2592,0.2594,0.2595,0.272,0.2721,0.2723,0.2789,0.2789,0.2789,0.2789,0.292,0.2924,0.2929,0,0,0,0,0,0,0,0,0,0,0,0,0,0.2505,0.241,0.2592,0.2643,0.2649,0.2719,0.2722,0.2724,0.2789,0.2789,0.2789,0.2789,0.2919,0.2924,0.2929,0.2959,0,0,0.2945,0.2947,0,0,0,0,0,0,0,0,0.2499,0.2512,0.2634,0.264,0.2646,0.2738,0.2704,0.2803,0.2789,0.2736,0.2789,0.2789,0.2861,0.2871,0.2894,0.2965,0.2971,0.2946,0.2949,0.2951,0.2952,0,0,0,0,0,0,0,0.2493,0.2507,0.2643,0.2636,0.2643,0.266,0.2674,0.2723,0.2796,0.274,0.2745,0.2759,0.2864,0.2889,0.2898,0.2973,0.2945,0.295,0.2953,0.2955,0.3074,0.3074,0,0,0,0,0,0,0.2477,0.2501,0.2639,0.2647,0.2572,0.2663,0.2679,0.2709,0.2796,0.2809,0.2759,0.2762,0.288,0.2892,0.2903,0.2943,0.2951,0.2956,0.2959,0.3074,0.3074,0.3074,0,0,0,0,0,0,0.2473,0.2489,0.2634,0.2575,0.2595,0.2666,0.2699,0.2711,0.2737,0.281,0.2823,0.2772,0.2881,0.2896,0.2944,0.2949,0.2958,0.2963,0.3074,0.3074,0.3074,0.3024,0,0,0,0,0,0,0.2467,0.2487,0.2499,0.2575,0.2598,0.2673,0.2699,0.2714,0.2745,0.275,0.2825,0.2838,0.2882,0.2936,0.2949,0.2956,0.2967,0.3074,0.3074,0.3074,0.3025,0.3022,0.3019,0,0,0,0,0,0.246,0.2481,0.2499,0.2516,0.2614,0.2673,0.2686,0.2736,0.2745,0.2758,0.2805,0.2835,0.2946,0.2941,0.2956,0.2964,0.3074,0.3074,0.3074,0.3027,0.3023,0.3019,0,0,0,0,0,0,0.2405,0.2492,0.2513,0.2559,0.2608,0.2684,0.2701,0.273,0.2778,0.2781,0.2841,0.2858,0.2901,0.2938,0.293,0.2997,0.3013,0.3016,0.2972,0.2968,0.2965,0.2956,0.2971,0,0,0,0,0,0.2397,0.2437,0.2511,0.2544,0.2567,0.263,0.2657,0.2691,0.2745,0.2766,0.2817,0.2868,0.2914,0.2943,0.299,0.3031,0.3048,0.3044,0.3041,0.3038,0.304,0.3063,0.3062,0.3074,0.3074,0.3074,0,0,0.2384,0.2436,0.2458,0.2534,0.2576,0.2616,0.2647,0.2688,0.2718,0.2773,0.2821,0.286,0.2921,0.2965,0.2987,0.2997,0.304,0.3038,0.3035,0.3039,0.3063,0.3062,0.306,0.3074,0.3074,0.3074,0,0,0.2378,0.2422,0.2454,0.2494,0.2557,0.2598,0.2605,0.2677,0.2704,0.2754,0.2795,0.2831,0.291,0.2951,0.2983,0.299,0.302,0.3004,0.2988,0.301,0.3009,0.3008,0.3011,0.3011,0.3006,0.3006,0.3006,0,0.2353,0.2415,0.2466,0.2505,0.2537,0.2586,0.2619,0.2656,0.2731,0.2752,0.2761,0.286,0.2904,0.2958,0.296,0.2984,0.2994,0.2996,0.3005,0.3005,0.3005,0.3008,0.3008,0.3003,0.3003,0.3004,0.3004,0,0.238,0.2422,0.244,0.251,0.2544,0.2579,0.2636,0.2664,0.2695,0.2734,0.2783,0.2838,0.2896,0.2912,0.2943,0.297,0.2974,0.2993,0.301,0.3001,0.3004,0.3006,0.3,0.3001,0.3001,0.3002,0,0,0.2345,0.2441,0.2447,0.2479,0.255,0.2584,0.262,0.2676,0.2699,0.2748,0.278,0.2845,0.2862,0.2898,0.2934,0.2952,0.2954,0.297,0.2972,0.2965,0.2986,0.2971,0.2971,0.2974,0.2974,0.2974,0.2981,0,0.235,0.2418,0.2464,0.2514,0.2553,0.2599,0.2631,0.2679,0.2716,0.2755,0.2797,0.2841,0.2862,0.2883,0.2904,0.2949,0.2959,0.2949,0.3004,0.3005,0.2987,0.2973,0.2958,0.2961,0.2983,0.2983,0.2983,0,0.2365,0.2411,0.2464,0.253,0.2549,0.2576,0.263,0.2666,0.272,0.2747,0.2784,0.2821,0.2861,0.2873,0.293,0.2922,0.2947,0.2972,0.2974,0.2981,0.2994,0.298,0.2964,0.2964,0.2986,0.2986,0.2986,0,0.2333,0.2409,0.245,0.2476,0.2554,0.2572,0.2606,0.266,0.269,0.2737,0.2757,0.2808,0.2836,0.2875,0.2924,0.2929,0.2975,0.2992,0.2997,0.2996,0.3005,0.3004,0.2993,0.3021,0.3021,0.3021,0.3021,0,0.2333,0.2364,0.2437,0.2462,0.2498,0.2551,0.2584,0.2622,0.2669,0.2702,0.2746,0.2776,0.2838,0.2876,0.2914,0.2954,0.2967,0.2989,0.2999,0.2985,0.2982,0.3003,0.3004,0.3021,0.3021,0.3021,0.3021,0,0.2304,0.2354,0.2402,0.2472,0.249,0.2513,0.2572,0.2598,0.2637,0.2679,0.2692,0.2753,0.28,0.2852,0.2916,0.2942,0.2979,0.2994,0.2961,0.2966,0.2969,0.2967,0.297,0.2973,0.2999,0.2998,0.2998,0,0.2301,0.2326,0.2397,0.2422,0.2454,0.2494,0.2524,0.2577,0.2606,0.2669,0.2687,0.2736,0.2779,0.2851,0.2902,0.2951,0.2966,0.2964,0.2974,0.2959,0.2966,0.2963,0.2966,0.2961,0.296,0.296,0.2959,0,0.2291,0.2314,0.2355,0.2405,0.244,0.2482,0.2525,0.2543,0.2604,0.2635,0.2683,0.2715,0.278,0.2828,0.2883,0.2918,0.2948,0.2955,0.2959,0.2946,0.2925,0.2936,0.2952,0.2956,0.2956,0.2956,0.2956,0.2957,0.2275,0.2298,0.2351,0.2396,0.2434,0.2473,0.2501,0.2542,0.2583,0.2639,0.2667,0.2714,0.2766,0.2842,0.2876,0.2913,0.2923,0.2929,0.293,0.2931,0.2927,0.2919,0.2923,0.2923,0.2924,0.2924,0.2924,0,0.2266,0.2302,0.2342,0.2401,0.2436,0.2461,0.251,0.2537,0.2577,0.2623,0.2663,0.2717,0.2763,0.2817,0.2866,0.2886,0.2901,0.2897,0.2896,0.2904,0.2915,0.2906,0.2884,0.2884,0.2884,0.2884,0.2884,0.2884,0.2265,0.2306,0.2335,0.2394,0.243,0.2475,0.2501,0.2537,0.2574,0.2631,0.267,0.2704,0.2752,0.2805,0.2849,0.2863,0.288,0.2871,0.289,0.29,0.2903,0.2906,0.2898,0.2874,0.2874,0.2875,0.2875,0.2875]},{"header":{"parameterUnit":"m.s-1","parameterCategory":1,"la1":30.2991,"la2":30.254,"lo1":-89.0895,"lo2":-89.0444,"dy":0.0017,"dx":0.0017,"nx":28,"ny":28,"refTime":"2025-07-27T03:00:00:Z","depth":0,"parameterNumber":3,"parameterNumberName":"V-component_of_WINDS"},"data":[0,0,0,0,0,0,0,0,0,0,0,0,0,0,0,0,0,0,0,0,0,0,0,0,0,0,0,0,0,0,0,0,0,0,0,0,0,0,0,0,0,0,0,0,0,0,0,0,0,0,0,0,0,0,0,0,0,0,3.1871,3.187,0,3.1822,3.1822,3.1821,3.1841,3.1842,3.1843,3.1844,3.1788,3.1786,3.1783,0,0,0,0,0,0,0,0,0,0,0,0,0,3.1974,3.1972,3.1871,3.187,3.187,3.1822,3.1822,3.1821,3.1841,3.1842,3.1843,3.1845,3.1789,3.1786,3.1783,0,0,0,0,0,0,0,0,0,0,0,0,0,3.1928,3.1972,3.1871,3.1874,3.1874,3.1823,3.1822,3.1821,3.184,3.1842,3.1844,3.1845,3.179,3.1786,3.1782,3.1724,0,0,3.1771,3.1769,0,0,0,0,0,0,0,0,3.193,3.1924,3.1874,3.1874,3.1873,3.184,3.1838,3.1788,3.184,3.1853,3.1844,3.1846,3.1803,3.1799,3.1785,3.1721,3.1719,3.177,3.1768,3.1766,3.1765,0,0,0,0,0,0,0,3.1934,3.1926,3.1851,3.1873,3.1873,3.1876,3.1871,3.1828,3.1819,3.1852,3.1853,3.1847,3.1803,3.1789,3.1784,3.1718,3.177,3.1767,3.1765,3.1763,3.1602,3.16,0,0,0,0,0,0,3.1938,3.1929,3.1853,3.185,3.1907,3.1872,3.1867,3.1848,3.1819,3.1817,3.1846,3.1849,3.1795,3.1789,3.1782,3.1711,3.1766,3.1763,3.1761,3.1604,3.1601,3.1599,0,0,0,0,0,0,3.194,3.1931,3.1855,3.189,3.188,3.1869,3.1848,3.1847,3.1832,3.1815,3.1813,3.1833,3.1796,3.1788,3.1738,3.1709,3.1761,3.1757,3.1606,3.1603,3.16,3.1568,0,0,0,0,0,0,3.1943,3.1931,3.191,3.1889,3.1878,3.1813,3.1846,3.1844,3.1826,3.1829,3.1803,3.18,3.1797,3.1744,3.1735,3.1705,3.1754,3.1608,3.1605,3.1601,3.1571,3.1564,3.1558,0,0,0,0,0,3.1946,3.1902,3.1909,3.19,3.1852,3.1812,3.1805,3.1805,3.1824,3.1802,3.179,3.1801,3.1714,3.1739,3.1728,3.1697,3.161,3.1606,3.1601,3.1574,3.1566,3.1558,0,0,0,0,0,0,3.1918,3.1899,3.1907,3.1855,3.1835,3.1815,3.1787,3.1795,3.1768,3.1771,3.177,3.1763,3.1712,3.17,3.1727,3.1638,3.1665,3.1658,3.1648,3.1639,3.1633,3.1636,3.1751,0,0,0,0,0,3.1906,3.1877,3.1861,3.1817,3.1806,3.1799,3.1781,3.1782,3.1761,3.1752,3.1737,3.1714,3.1681,3.166,3.1629,3.157,3.1564,3.1543,3.1537,3.1531,3.1525,3.1491,3.1482,3.1585,3.1585,3.1585,0,0,3.188,3.1866,3.1847,3.181,3.1795,3.1763,3.1791,3.1756,3.1731,3.1746,3.1698,3.1687,3.1661,3.1606,3.1581,3.1594,3.1495,3.1525,3.1521,3.1518,3.1486,3.1476,3.1467,3.1582,3.1582,3.1583,0,0,3.1816,3.1804,3.1765,3.1749,3.1727,3.1722,3.1713,3.1692,3.1685,3.1638,3.1648,3.1618,3.1563,3.1543,3.1526,3.1456,3.1464,3.1446,3.141,3.1377,3.1369,3.1362,3.1336,3.1326,3.144,3.144,3.144,0,3.1786,3.174,3.1743,3.1707,3.169,3.1704,3.1663,3.1648,3.1615,3.1602,3.1617,3.1548,3.1532,3.1472,3.1455,3.1442,3.1429,3.1448,3.1371,3.1363,3.1357,3.1331,3.1322,3.1438,3.1438,3.1438,3.1438,0,3.1704,3.1671,3.1642,3.1613,3.1593,3.1554,3.155,3.1528,3.1532,3.1525,3.1476,3.1457,3.1422,3.1408,3.141,3.1349,3.1358,3.1372,3.1398,3.1345,3.1321,3.1311,3.1435,3.1435,3.1436,3.1437,0,0,3.1619,3.1593,3.1582,3.1569,3.1545,3.1519,3.1481,3.145,3.143,3.1408,3.1374,3.1327,3.1341,3.1321,3.1321,3.1293,3.1237,3.1311,3.131,3.1297,3.1166,3.1155,3.1144,3.1243,3.1241,3.124,3.1168,0,3.1553,3.1488,3.149,3.1429,3.1399,3.1411,3.1378,3.1359,3.1351,3.1322,3.1313,3.128,3.13,3.1289,3.1262,3.125,3.1211,3.1255,3.121,3.1208,3.1215,3.1132,3.1119,3.1053,3.1159,3.1158,3.1156,0,3.1466,3.1443,3.138,3.136,3.1347,3.1318,3.1289,3.1262,3.124,3.1236,3.1215,3.1219,3.1178,3.1208,3.115,3.1181,3.1162,3.1153,3.1151,3.1145,3.1178,3.1122,3.1032,3.1022,3.1142,3.1143,3.1144,0,3.141,3.1362,3.1318,3.1306,3.1283,3.1261,3.125,3.123,3.1211,3.1185,3.1172,3.1141,3.1123,3.1098,3.1093,3.1115,3.1035,3.1064,3.1029,3.1029,3.101,3.1011,3.0914,3.1001,3.1001,3.1001,3.1001,0,3.1334,3.1295,3.1292,3.1265,3.122,3.1222,3.1177,3.1168,3.115,3.1119,3.1128,3.1099,3.1095,3.1064,3.106,3.1012,3.1004,3.0999,3.0998,3.0997,3.0998,3.0984,3.0988,3.0999,3.0999,3.1,3.1,0,3.1263,3.126,3.1212,3.1195,3.119,3.1157,3.1141,3.1114,3.1108,3.1069,3.106,3.105,3.1014,3.1007,3.0964,3.0961,3.0904,3.0909,3.0912,3.0912,3.0877,3.088,3.0767,3.0751,3.0849,3.0848,3.0847,0,3.1214,3.1185,3.1164,3.1146,3.1134,3.1104,3.1085,3.1085,3.1064,3.1037,3.1013,3.0979,3.0951,3.0893,3.088,3.0847,3.0849,3.0812,3.0844,3.0845,3.0847,3.0849,3.0845,3.0805,3.0804,3.0803,3.0803,0,3.1128,3.1129,3.1102,3.1075,3.1052,3.103,3.1009,3.0993,3.099,3.0966,3.0931,3.091,3.0867,3.0832,3.0799,3.0785,3.0792,3.0793,3.0783,3.0781,3.0784,3.0781,3.0894,3.0795,3.0796,3.0796,3.0797,3.0797,3.1066,3.104,3.1022,3.0992,3.0976,3.0957,3.0931,3.0922,3.0893,3.086,3.0861,3.0822,3.08,3.0757,3.0741,3.0709,3.0721,3.0706,3.0703,3.0699,3.0695,3.0791,3.0703,3.0704,3.0704,3.0704,3.0704,0,3.0979,3.0969,3.0941,3.0913,3.0888,3.0901,3.0878,3.0856,3.0822,3.0802,3.0775,3.0734,3.07,3.0686,3.0652,3.0629,3.0631,3.062,3.0621,3.0617,3.0687,3.0699,3.0619,3.0619,3.0619,3.0619,3.0619,3.0619,3.0931,3.0888,3.0886,3.0834,3.0823,3.0787,3.0772,3.0754,3.0738,3.0692,3.0665,3.0656,3.0638,3.0603,3.0572,3.0568,3.0554,3.0541,3.0539,3.0604,3.0612,3.0621,3.0632,3.0539,3.0538,3.0472,3.0471,3.0471]}]]